This demonstration page uses our WeatherBlox Daily Observations layout. Learn more.

Left ArrowRight Arrow

41.55636, -103.73856

Hourly Observations for December 26, 2017

Temp ( °F °C ) Dew Point ( °F °C ) Humidity (%) Winds ( mph kmh ) Pressure ( in mb ) Visibility ( mi km ) Precip ( " mm )
12:04 am 00:04 Cloudy with Light Snow 4 -15.6 -1 -18.3 80 80 E 8 13 30.65 1038 3 4 N/A
12:13 am 00:13 Cloudy with Light Snow 3 -16.1 -1 -18.3 83 83 E 9 15 30.62 1037 3 5 N/A
12:53 am 00:53 Cloudy 3 -16.1 -1 -18.3 83 83 E 8 13 30.50 1033 9 14 N/A
1:35 am 01:35 Cloudy with Light Snow 3 -16.1 -1 -18.3 83 83 E 10 17 30.65 1038 3 4 N/A
1:43 am 01:43 Cloudy with Light Snow 3 -16.1 -1 -18.3 83 83 E 10 17 30.65 1038 4 6 N/A
1:53 am 01:53 Cloudy with Light Snow 3 -16.1 -1 -18.3 83 83 undefined N/A 30.51 1033 4 6 N/A
2:05 am 02:05 Cloudy with Light Snow 3 -16.1 -1 -18.3 83 83 E 10 17 30.65 1038 3 4 N/A
2:21 am 02:21 Cloudy with Light Snow 3 -16.1 -1 -18.3 83 83 E 12 19 30.65 1038 2 3 0.01 0.25
2:25 am 02:25 Cloudy with Light Snow 3 -16.1 -1 -18.3 83 83 E 10 17 30.65 1038 2 3 0.01 0.25
2:36 am 02:36 Cloudy with Light Snow 1 -17 -2 -19 85 85 E 10 17 30.71 1040 3 5 N/A
2:53 am 02:53 Cloudy with Light Snow 2 -16.7 -2 -18.9 83 83 E 8 13 30.53 1034 3 5 0.01 0.25
3:53 am 03:53 Cloudy -5 -20.6 -9 -22.8 83 83 E 6 9 30.55 1035 9 14 N/A
4:42 am 04:42 Cloudy with Light Snow -4 -20 -9 -23 77 77 E 9 15 30.77 1042 4 6 N/A
4:53 am 04:53 Cloudy with Light Snow -6 -21.1 -10 -23.3 83 83 E 9 15 30.56 1035 5 8 N/A
5:21 am 05:21 Cloudy with Mist and Fog -8 -22.2 -11 -23.9 86 86 E 6 9 30.80 1043 4 6 N/A
5:53 am 05:53 Cloudy with Mist and Fog -3 -19.4 -7 -21.7 82 82 E 8 13 30.57 1035 6 10 N/A
6:53 am 06:53 Cloudy with Mist and Fog -3 -19.4 -7 -21.7 82 82 E 7 11 30.58 1036 6 10 N/A
7:53 am 07:53 Cloudy with Mist and Fog -3 -19.4 -7 -21.7 82 82 E 7 11 30.59 1036 4 6 N/A
8:53 am 08:53 Cloudy with Light Snow -5 -20.6 -9 -22.8 83 83 E 7 11 30.62 1037 3 5 N/A
9:53 am 09:53 Cloudy 1 -17.2 -4 -20 79 79 ESE 8 13 30.62 1037 10 16 N/A
10:53 am 10:53 Mostly Sunny 1 -17.2 -3 -19.4 83 83 ESE 8 13 30.60 1036 10 16 N/A
11:53 am 11:53 Mostly Cloudy 3 -16.1 -2 -18.9 79 79 E 9 15 30.58 1035 10 16 N/A
12:53 pm 12:53 Partly Cloudy 4 -15.6 -1 -18.3 80 80 E 9 15 30.55 1035 10 16 N/A
1:53 pm 13:53 Cloudy 5 -15 -1 -18.3 76 76 E 9 15 30.53 1034 10 16 N/A
2:53 pm 14:53 Sunny 2 -16.7 -2 -18.9 83 83 ESE 7 11 30.55 1035 10 16 N/A
3:53 pm 15:53 Sunny -1 -18.3 -6 -21.1 79 79 ESE 7 11 30.60 1036 10 16 N/A
4:53 pm 16:53 Clear -6 -21.1 -10 -23.3 83 83 E 9 15 30.62 1037 10 16 N/A
5:53 pm 17:53 Clear -7 -21.7 -11 -23.9 82 82 E 10 17 30.61 1037 10 16 N/A
6:53 pm 18:53 Clear -7 -21.7 -11 -23.9 82 82 E 8 13 30.63 1037 10 16 N/A
7:53 pm 19:53 Clear -6 -21.1 -10 -23.3 83 83 E 10 17 30.61 1037 10 16 N/A
8:53 pm 20:53 Clear -6 -21.1 -10 -23.3 83 83 E 9 15 30.61 1037 10 16 N/A
9:53 pm 21:53 Clear -6 -21.1 -9 -22.8 86 86 E 8 13 30.58 1036 10 16 N/A
10:53 pm 22:53 Clear -6 -21.1 -9 -22.8 86 86 N N/A 30.59 1036 10 16 N/A
11:53 pm 23:53 Clear -15 -26.1 -18 -27.8 86 86 NW 7 11 30.60 1036 10 16 N/A

Powered by AerisWeather